Location: Rathdrum
(47.8130°N, 116.8960°W)
Time: 17:02:10
(UTC-07:00)

Amateur Radio Satellites - All Passes

Search period start: 27 September 2016 16:32
Search period end: 28 September 2016 16:32
Location: Rathdrum, 47.8130°N, 116.8960°W

Satellite Date Start Highest point End Downlink Frequencies (MHz)
Time Altitude Azimuth
Cubesat XI-IV 27 Sep 16:35:14 16:38:32 17° 56° (NE) 16:41:51 437.490
CUTE-I 27 Sep 16:35:28 16:38:48 17° 56° (NE) 16:42:09 437.470
BEESAT 27 Sep 16:38:49 16:42:51 27° 297° (WNW) 16:46:52 436.000
LilacSat-2 27 Sep 16:46:57 16:48:27 12° 60° (ENE) 16:49:56 437.200
AO-7 27 Sep 16:54:40 17:01:38 29° 267° (W) 17:08:38 29.400- 29.500
KKS-1 27 Sep 16:58:03 17:02:31 73° 104° (ESE) 17:06:55 437.445
AIST 1 27 Sep 17:04:10 17:08:14 42° 267° (W) 17:12:16
GOMX 1 27 Sep 17:08:36 17:13:16 32° 66° (ENE) 17:17:44 467.674
Cosmos 2491 27 Sep 17:11:15 17:18:36 29° 299° (WNW) 17:26:04 435.465 / 435.565
NOAA 18 27 Sep 17:12:17 17:16:54 29° 61° (ENE) 17:21:31 137.9125
YUBILEINY 27 Sep 17:15:10 17:16:39 11° 293° (WNW) 17:18:08 435.215
BRITE-PL 27 Sep 17:16:25 17:22:06 73° 74° (ENE) 17:27:39 437.365/2234.400
O/OREOS (USA 219) 27 Sep 17:17:49 17:22:26 71° 246° (WSW) 17:26:59 437.305
HORYU 2 27 Sep 17:19:37 17:23:58 59° 259° (WSW) 17:28:21 437.375
SO-50 27 Sep 17:20:15 17:24:30 30° 322° (NW) 17:28:43 436.795
DOVE 4 27 Sep 17:32:26 17:36:17 23° 64° (ENE) 17:40:00 437.250
STARS 27 Sep 17:32:35 17:36:59 81° 104° (ESE) 17:41:21 437.465
GONETS M04 27 Sep 17:39:53 17:45:11 17° 51° (NE) 17:50:26
Cosmos 2499 27 Sep 17:40:37 17:42:56 11° 50° (NE) 17:45:18 435.465 / 435.565
CUSAT 1 27 Sep 17:42:03 17:45:39 15° 74° (ENE) 17:49:31 437.405
CUBESAT XI-V 27 Sep 17:49:06 17:53:45 55° 100° (E) 17:58:19 437.345
NOAA 15 27 Sep 17:57:23 18:02:42 86° 74° (ENE) 18:08:05 137.62
MOZHAYETS 4 27 Sep 18:08:19 18:11:33 19° 299° (WNW) 18:14:46
Cubesat XI-IV 27 Sep 18:12:36 18:17:55 87° 255° (WSW) 18:23:18 437.490
CUTE-I 27 Sep 18:12:51 18:18:10 86° 254° (WSW) 18:23:32 437.470
HO-68 27 Sep 18:16:36 18:22:37 30° 56° (NE) 18:28:37 435.675
LilacSat-2 27 Sep 18:18:28 18:22:13 70° 258° (WSW) 18:26:01 437.200
KKS-1 27 Sep 18:35:58 18:38:32 15° 301° (WNW) 18:41:06 437.445
COMPASS 1 27 Sep 18:43:31 18:44:47 11° 57° (ENE) 18:46:03 437.405
GOMX 1 27 Sep 18:46:09 18:51:13 41° 263° (W) 18:56:05 467.674
CINEMA 3 27 Sep 18:46:10 18:50:01 30° 67° (ENE) 18:53:46 145.822/145.860
STRAND 1 27 Sep 18:47:06 18:49:21 13° 87° (E) 18:51:36 437.568
NOAA 18 27 Sep 18:52:01 18:57:19 50° 260° (W) 19:02:38 137.9125
BRITE-PL 27 Sep 18:57:01 19:01:02 20° 271° (W) 19:05:02 437.365/2234.400
SO-50 27 Sep 19:04:38 19:06:29 12° 345° (NNW) 19:08:20 436.795
CUTE 1.7 + AOD 2 27 Sep 19:06:44 19:10:34 34° 68° (ENE) 19:14:26 437.475
CANX-2 27 Sep 19:07:47 19:11:44 40° 69° (ENE) 19:15:44 2200.000
DANDE 27 Sep 19:08:26 19:12:48 24° 80° (E) 19:18:03 436.750
DOVE 4 27 Sep 19:08:53 19:13:44 50° 261° (W) 19:18:20 437.250
SEEDS 27 Sep 19:08:58 19:12:29 26° 66° (ENE) 19:16:03 437.485
STARS 27 Sep 19:10:33 19:12:44 14° 302° (WNW) 19:14:55 437.465
CUSAT 1 27 Sep 19:19:39 19:26:02 71° 96° (E) 19:33:46 437.405
RS-15 27 Sep 19:20:10 19:30:26 39° 107° (ESE) 19:41:09 29.354- 29.394
CUBESAT XI-V 27 Sep 19:27:16 19:30:45 21° 298° (WNW) 19:34:12 437.345
Cosmos 2499 27 Sep 19:30:45 19:38:01 52° 74° (ENE) 19:45:48 435.465 / 435.565
AAUSAT CUBESAT 2 27 Sep 19:32:15 19:35:41 26° 66° (ENE) 19:39:10 437.432
GONETS M04 27 Sep 19:35:20 19:44:08 65° 76° (ENE) 19:52:49
NOAA 15 27 Sep 19:40:20 19:43:12 15° 272° (W) 19:46:05 137.62
CUBEBUG 2 27 Sep 19:54:51 19:58:47 41° 70° (ENE) 20:02:42 437.445
Cubesat XI-IV 27 Sep 19:56:20 19:58:48 13° 274° (W) 20:01:15 437.490
CUTE-I 27 Sep 19:56:38 19:59:01 13° 274° (W) 20:01:24 437.470
FUNcube-1 27 Sep 20:02:02 20:05:10 21° 64° (ENE) 20:08:18 145.935
HO-68 27 Sep 20:02:42 20:09:50 68° 256° (WSW) 20:17:01 435.675
ISS 27 Sep 20:06:24 20:08:19 15° 136° (SE) 20:10:14 145.825
UWE-3 27 Sep 20:13:18 20:17:14 43° 70° (ENE) 20:21:10 435.000/436.395/437.385
COMPASS 1 27 Sep 20:15:27 20:19:38 87° 78° (ENE) 20:23:53 437.405
CINEMA 3 27 Sep 20:23:12 20:27:09 30° 264° (W) 20:30:58 145.822/145.860
STRAND 1 27 Sep 20:24:05 20:29:17 87° 107° (ESE) 20:34:27 437.568
Oscar 11 27 Sep 20:40:59 20:45:11 54° 72° (ENE) 20:49:26 145.826/435.025
ZACube-1 27 Sep 20:42:52 20:46:55 56° 72° (ENE) 20:51:00 437.345
CUTE 1.7 + AOD 2 27 Sep 20:42:55 20:46:28 26° 266° (W) 20:50:03 437.475
SEEDS 27 Sep 20:44:15 20:48:04 34° 264° (W) 20:51:57 437.485
CANX-2 27 Sep 20:44:25 20:47:45 22° 268° (W) 20:51:08 2200.000
SO-50 27 Sep 20:47:45 20:49:05 11° 11° (N) 20:50:25 436.795
DANDE 27 Sep 20:49:22 20:54:44 63° 287° (WNW) 21:01:50 436.750
DELFI C3 27 Sep 20:53:27 20:56:57 30° 67° (ENE) 21:00:29 145.870
PRISM 27 Sep 20:55:12 20:58:16 20° 93° (E) 21:01:18 437.425
CUSAT 1 27 Sep 21:03:06 21:08:52 29° 300° (WNW) 21:15:28 437.405
HUMSAT D 27 Sep 21:05:21 21:08:31 22° 64° (ENE) 21:11:43 437.325/437.525
AAUSAT CUBESAT 2 27 Sep 21:07:14 21:11:02 34° 264° (W) 21:14:54 437.432
AO-85 27 Sep 21:19:37 21:24:38 52° 122° (ESE) 21:29:21 145.980
Cosmos 2499 27 Sep 21:24:16 21:30:55 36° 274° (W) 21:38:01 435.465 / 435.565
RS-15 27 Sep 21:30:15 21:42:01 76° 312° (NW) 21:54:25 29.354- 29.394
CUBEBUG 2 27 Sep 21:32:28 21:35:37 20° 268° (W) 21:38:44 437.445
GONETS M04 27 Sep 21:32:53 21:40:23 33° 278° (W) 21:47:50
FUNcube-1 27 Sep 21:37:16 21:41:10 41° 262° (W) 21:45:07 145.935
ISS 27 Sep 21:41:06 21:44:22 77° 154° (SSE) 21:47:39 145.825
ESTCUBE 1 27 Sep 21:45:18 21:47:24 13° 57° (ENE) 21:49:29 437.505/2401.250
UWE-3 27 Sep 21:50:54 21:53:55 19° 268° (W) 21:56:57 435.000/436.395/437.385
ANTELSAT 27 Sep 21:55:05 21:57:19 14° 89° (E) 21:59:33 437.575/2403.000
COMPASS 1 27 Sep 21:55:32 21:55:49 10° 274° (W) 21:56:07 437.405
HO-68 27 Sep 21:55:44 21:58:53 13° 276° (W) 22:02:05 435.675
STRAND 1 27 Sep 22:04:41 22:07:47 16° 304° (NW) 22:10:53 437.568
TIGRISAT 27 Sep 22:14:49 22:18:05 20° 92° (E) 22:21:23 435.000
Oscar 11 27 Sep 22:18:48 22:21:39 17° 270° (W) 22:24:32 145.826/435.025
ZACube-1 27 Sep 22:21:11 22:23:36 15° 270° (W) 22:26:00 437.345
M-CUBED/EXP-1 PRIME 27 Sep 22:24:53 22:27:18 16° 57° (ENE) 22:29:38 437.505
50 SAT 27 Sep 22:26:19 22:27:36 12° 60° (ENE) 22:28:53 437.505
SO-50 27 Sep 22:27:20 22:31:13 25° 35° (NE) 22:35:00 436.795
DELFI C3 27 Sep 22:28:22 22:31:47 27° 265° (W) 22:35:14 145.870
PRISM 27 Sep 22:29:50 22:33:46 43° 291° (WNW) 22:37:40 437.425
AISAT 27 Sep 22:36:09 22:39:28 21° 62° (ENE) 22:42:47 437.250
DANDE 27 Sep 22:36:09 22:39:28 14° 313° (NW) 22:43:09 436.750
HUMSAT D 27 Sep 22:40:05 22:43:55 39° 262° (W) 22:47:49 437.325/437.525
UKube-1 27 Sep 22:44:38 22:46:36 13° 57° (ENE) 22:48:35 .
UNISAT 6 27 Sep 22:54:43 22:59:01 52° 100° (E) 23:03:24 437.425
AO-85 27 Sep 23:00:48 23:05:19 32° 320° (NW) 23:09:34 145.980
DX 1 27 Sep 23:11:09 23:14:51 28° 65° (ENE) 23:18:34 434.975-435.025
ISS 27 Sep 23:17:53 23:21:02 42° 353° (N) 23:24:12 145.825
VELOX 1 27 Sep 23:18:34 23:22:51 47° 70° (ENE) 23:27:08 145.980
ESTCUBE 1 27 Sep 23:18:58 23:23:30 89° 67° (ENE) 23:28:05 437.505/2401.250
AUBIESAT-1 27 Sep 23:20:19 23:24:06 44° 66° (ENE) 23:27:39 437.475
CUBEBUG 1 27 Sep 23:22:42 23:27:05 65° 73° (ENE) 23:31:28 437.445
Cosmos 2491 27 Sep 23:24:07 23:26:59 12° 43° (NE) 23:29:50 435.465 / 435.565
QB50P2 27 Sep 23:27:19 23:30:12 18° 91° (E) 23:33:06 145.880/145.840
POLYITAN 1 27 Sep 23:29:31 23:32:25 18° 91° (E) 23:35:18 437.675
ANTELSAT 27 Sep 23:30:07 23:34:30 72° 287° (WNW) 23:38:58 437.575/2403.000
JAS-2 27 Sep 23:34:05 23:40:35 27° 88° (E) 23:46:51 435.910
RS-15 27 Sep 23:45:48 23:56:51 39° 342° (NNW) 00:08:15 29.354- 29.394
TISAT 1 27 Sep 23:50:38 23:52:48 14° 59° (ENE) 23:54:59 437.305
TIGRISAT 27 Sep 23:50:48 23:55:00 47° 289° (WNW) 23:59:18 435.000
50 SAT 27 Sep 23:56:57 00:00:34 70° 258° (WSW) 00:04:15 437.505
M-CUBED/EXP-1 PRIME 27 Sep 23:57:28 00:01:31 59° 252° (WSW) 00:05:17 437.505
SPROUT 28 Sep 00:03:35 00:07:50 75° 74° (ENE) 00:12:06 437.525
DUCHIFAT 1 28 Sep 00:06:46 00:10:40 36° 97° (E) 00:14:32 145.980
SO-50 28 Sep 00:07:31 00:12:06 66° 236° (SW) 00:16:33 436.795
QB50P1 28 Sep 00:08:50 00:12:53 43° 99° (E) 00:16:54 145.935-145.965
BUGSAT 1 28 Sep 00:09:57 00:12:33 17° 91° (E) 00:15:09 437.445
AISAT 28 Sep 00:11:17 00:15:38 50° 260° (W) 00:19:58 437.250
UKube-1 28 Sep 00:17:41 00:22:01 86° 255° (WSW) 00:26:23 .
POPSAT HIP 1 28 Sep 00:22:17 00:26:28 59° 101° (E) 00:30:37 437.405
UNISAT 6 28 Sep 00:32:14 00:35:25 20° 297° (WNW) 00:38:38 437.425
BEESAT 28 Sep 00:36:32 00:37:58 11° 53° (NE) 00:39:25 436.000
NANOSAT C BR1 28 Sep 00:38:35 00:42:48 84° 106° (ESE) 00:47:00 145.865
BEESAT 2 28 Sep 00:40:11 00:41:50 12° 110° (ESE) 00:43:30 435.950
AO-85 28 Sep 00:45:26 00:47:10 12° 342° (NNW) 00:48:50 145.980
DX 1 28 Sep 00:46:56 00:50:56 35° 263° (W) 00:54:59 434.975-435.025
ISS 28 Sep 00:54:40 00:57:53 51° 13° (NNE) 01:01:07 145.825
AUBIESAT-1 28 Sep 00:55:55 00:58:43 18° 260° (W) 01:01:23 437.475
VELOX 1 28 Sep 00:56:14 00:59:33 20° 268° (W) 01:02:54 145.980
ESTCUBE 1 28 Sep 00:59:39 01:00:59 11° 273° (W) 01:02:19 437.505/2401.250
CUBEBUG 1 28 Sep 01:01:16 01:03:48 15° 271° (W) 01:06:20 437.445
QB50P2 28 Sep 01:02:13 01:06:18 49° 289° (WNW) 01:10:22 145.880/145.840
POLYITAN 1 28 Sep 01:04:25 01:08:30 49° 289° (WNW) 01:12:35 437.675
ANTELSAT 28 Sep 01:10:10 01:10:27 10° 304° (NW) 01:10:44 437.575/2403.000
Cosmos 2491 28 Sep 01:18:15 01:26:43 47° 70° (ENE) 01:35:07 435.465 / 435.565
JAS-2 28 Sep 01:18:22 01:26:16 76° 289° (WNW) 01:33:53 435.910
BEESAT 3 28 Sep 01:19:27 01:23:17 56° 122° (ESE) 01:27:10 437.485
TISAT 1 28 Sep 01:23:44 01:27:55 73° 257° (WSW) 01:32:06 437.305
SPROUT 28 Sep 01:42:33 01:44:18 12° 272° (W) 01:46:03 437.525
DUCHIFAT 1 28 Sep 01:42:48 01:46:12 25° 295° (WNW) 01:49:37 145.980
BUGSAT 1 28 Sep 01:44:20 01:48:13 48° 289° (WNW) 01:52:06 437.445
ITUPSAT 1 28 Sep 01:44:30 01:48:57 40° 67° (ENE) 01:53:26 437.325
QB50P1 28 Sep 01:45:13 01:48:24 21° 297° (WNW) 01:51:36 145.935-145.965
Oscar 19 28 Sep 01:52:29 01:57:22 40° 98° (E) 02:02:11 437.125/150
SWISSCUBE 28 Sep 01:57:16 02:01:55 59° 71° (ENE) 02:06:39 437.505
POPSAT HIP 1 28 Sep 01:59:09 02:01:50 17° 299° (WNW) 02:04:30 437.405
MOZHAYETS 4 28 Sep 02:01:20 02:03:16 13° 56° (NE) 02:05:12
RS-15 28 Sep 02:02:10 02:13:27 39° 16° (NNE) 02:24:47 29.354- 29.394
BEESAT 28 Sep 02:10:10 02:14:54 70° 72° (ENE) 02:19:40 436.000
BEESAT 2 28 Sep 02:15:05 02:19:03 80° 310° (NW) 02:23:04 435.950
NANOSAT C BR1 28 Sep 02:16:10 02:17:55 12° 302° (WNW) 02:19:40 145.865
YUBILEINY 28 Sep 02:22:25 02:30:21 40° 85° (E) 02:38:15 435.215
KKS-1 28 Sep 02:25:17 02:27:36 14° 58° (ENE) 02:29:54 437.445
ISS 28 Sep 02:31:14 02:34:23 44° 213° (SSW) 02:37:32 145.825
ITAMSAT 1 28 Sep 02:46:40 02:50:18 19° 90° (E) 02:53:55 435.822/435.867
Gurwin Techsat 1B 28 Sep 02:51:09 02:56:28 66° 102° (ESE) 03:01:45 435.225
BEESAT 3 28 Sep 02:58:06 03:01:14 22° 323° (NW) 03:04:25 437.485
STARS 28 Sep 02:58:21 03:00:47 15° 58° (ENE) 03:03:13 437.465
AO-7 28 Sep 02:59:06 03:04:23 18° 87° (E) 03:09:37 29.400- 29.500
AIST 2 28 Sep 03:02:58 03:05:20 15° 111° (ESE) 03:07:43 435.215
JAS-2 28 Sep 03:04:32 03:10:04 22° 309° (NW) 03:15:34 435.910
Cosmos 2504 28 Sep 03:10:56 03:16:53 28° 83° (E) 03:22:43 435.465 / 435.565
Cosmos 2491 28 Sep 03:15:18 03:23:37 47° 272° (W) 03:31:51 435.465 / 435.565
CUBESAT XI-V 28 Sep 03:21:38 03:23:27 12° 55° (NE) 03:25:16 437.345
ITUPSAT 1 28 Sep 03:22:53 03:26:54 27° 266° (W) 03:30:59 437.325
Oscar 19 28 Sep 03:32:03 03:36:34 31° 296° (WNW) 03:41:02 437.125/150
MOZHAYETS 4 28 Sep 03:35:07 03:39:42 85° 73° (ENE) 03:44:20
SWISSCUBE 28 Sep 03:36:48 03:40:07 19° 269° (W) 03:43:27 437.505
BEESAT 28 Sep 03:50:22 03:53:12 16° 271° (W) 03:56:02 436.000
BEESAT 2 28 Sep 03:54:58 03:57:31 16° 329° (NNW) 04:00:05 435.950
KKS-1 28 Sep 03:59:07 04:03:34 82° 256° (WSW) 04:08:03 437.445
AO-85 28 Sep 04:08:34 04:11:55 21° 33° (NNE) 04:15:04 145.980
CUSAT 1 28 Sep 04:09:30 04:14:39 18° 51° (NE) 04:19:27 437.405
RS-15 28 Sep 04:15:59 04:28:26 74° 47° (NE) 04:40:40 29.354- 29.394
YUBILEINY 28 Sep 04:18:22 04:26:55 54° 287° (WNW) 04:35:29 435.215
ITAMSAT 1 28 Sep 04:25:04 04:30:16 67° 289° (WNW) 04:35:27 435.822/435.867
PCSat 28 Sep 04:26:12 04:31:20 45° 115° (ESE) 04:36:30 145.827
Gurwin Techsat 1B 28 Sep 04:31:59 04:35:57 22° 301° (WNW) 04:39:55 435.225
STARS 28 Sep 04:32:13 04:36:35 75° 256° (WSW) 04:41:00 437.465
AIST 2 28 Sep 04:39:11 04:43:17 70° 310° (NW) 04:47:27 435.215
AO-7 28 Sep 04:50:08 04:58:30 78° 108° (ESE) 05:06:48 29.400- 29.500
CUBESAT XI-V 28 Sep 04:55:20 05:00:02 78° 74° (ENE) 05:04:46 437.345
Cosmos 2504 28 Sep 05:02:30 05:09:45 61° 284° (WNW) 05:16:52 435.465 / 435.565
HORYU 2 28 Sep 05:07:36 05:10:55 20° 93° (E) 05:14:12 437.375
MOZHAYETS 4 28 Sep 05:15:45 05:17:30 12° 273° (W) 05:19:16
BRITE-PL 28 Sep 05:19:39 05:22:50 17° 87° (E) 05:25:52 437.365/2234.400
AIST 1 28 Sep 05:36:12 05:40:37 89° 295° (WNW) 05:45:00
DANDE 28 Sep 05:40:42 05:48:11 35° 63° (ENE) 05:55:27 436.750
AO-85 28 Sep 05:48:37 05:52:51 73° 235° (SW) 05:56:47 145.980
CUSAT 1 28 Sep 05:50:27 05:58:23 68° 75° (ENE) 06:05:05 437.405
LilacSat-2 28 Sep 05:51:01 05:51:31 10° 88° (E) 05:52:01 437.200
STRAND 1 28 Sep 06:05:26 06:09:40 27° 62° (ENE) 06:13:56 437.568
ITAMSAT 1 28 Sep 06:06:46 06:08:48 12° 308° (NW) 06:10:50 435.822/435.867
NOAA 15 28 Sep 06:09:37 06:13:57 25° 93° (E) 06:18:15 137.62
PCSat 28 Sep 06:09:51 06:14:51 37° 316° (NW) 06:19:53 145.827
AIST 2 28 Sep 06:19:57 06:22:31 16° 331° (NNW) 06:25:07 435.215
YUBILEINY 28 Sep 06:22:12 06:26:13 14° 313° (NW) 06:30:15 435.215
Cubesat XI-IV 28 Sep 06:26:39 06:31:16 29° 94° (E) 06:35:53 437.490
CUTE-I 28 Sep 06:26:41 06:31:20 29° 94° (E) 06:35:58 437.470
RS-15 28 Sep 06:29:08 06:40:15 42° 252° (WSW) 06:51:09 29.354- 29.394
CUBESAT XI-V 28 Sep 06:35:37 06:38:00 14° 273° (W) 06:40:23 437.345
HORYU 2 28 Sep 06:43:26 06:47:43 48° 290° (WNW) 06:52:01 437.375
AO-7 28 Sep 06:43:39 06:50:34 31° 309° (NW) 06:57:28 29.400- 29.500
GOMX 1 28 Sep 06:44:43 06:49:03 46° 98° (E) 06:53:07 467.674
GONETS M04 28 Sep 06:49:40 06:53:48 14° 70° (ENE) 06:57:58
BRITE-PL 28 Sep 06:57:01 07:01:53 60° 288° (WNW) 07:06:20 437.365/2234.400
Cosmos 2504 28 Sep 07:01:49 07:04:52 13° 308° (NW) 07:07:56 435.465 / 435.565
DOVE 4 28 Sep 07:04:34 07:08:22 31° 96° (E) 07:12:03 437.250
NOAA 18 28 Sep 07:10:13 07:15:35 52° 101° (E) 07:20:54 137.9125
AIST 1 28 Sep 07:17:40 07:18:55 11° 298° (WNW) 07:20:10
LilacSat-2 28 Sep 07:22:28 07:26:18 74° 285° (WNW) 07:30:08 437.200
DANDE 28 Sep 07:23:16 07:31:35 69° 264° (W) 07:39:28 436.750
HO-68 28 Sep 07:27:37 07:32:40 20° 89° (E) 07:37:41 435.675
O/OREOS (USA 219) 28 Sep 07:33:07 07:37:40 70° 113° (ESE) 07:42:16 437.305
CUSAT 1 28 Sep 07:33:18 07:39:41 29° 277° (W) 07:45:21 437.405
STRAND 1 28 Sep 07:43:43 07:48:37 47° 261° (W) 07:53:35 437.568
PRISM 28 Sep 07:47:39 07:51:01 24° 64° (ENE) 07:54:23 437.425
NOAA 15 28 Sep 07:48:52 07:54:01 52° 291° (WNW) 07:59:07 137.62
BEESAT 3 28 Sep 07:56:24 07:59:17 19° 34° (NE) 08:02:09 437.485
COMPASS 1 28 Sep 07:56:59 07:58:22 11° 87° (E) 07:59:43 437.405
PCSat 28 Sep 07:57:24 07:59:54 13° 340° (NNW) 08:02:23 145.827
Cubesat XI-IV 28 Sep 08:06:27 08:11:31 45° 293° (WNW) 08:16:37 437.490
CUTE-I 28 Sep 08:06:28 08:11:33 45° 293° (WNW) 08:16:38 437.470
Cosmos 2499 28 Sep 08:12:41 08:18:57 35° 86° (E) 08:25:12 435.465 / 435.565
CINEMA 3 28 Sep 08:13:30 08:17:30 44° 99° (E) 08:21:33 145.822/145.860
CUTE 1.7 + AOD 2 28 Sep 08:23:28 08:27:35 42° 98° (E) 08:31:40 437.475
GOMX 1 28 Sep 08:23:29 08:26:50 21° 298° (WNW) 08:30:02 467.674
SEEDS 28 Sep 08:24:21 08:28:10 31° 95° (E) 08:31:57 437.485
CANX-2 28 Sep 08:24:44 08:28:57 50° 99° (E) 08:33:08 2200.000
GONETS M04 28 Sep 08:40:05 08:48:47 65° 93° (E) 08:57:31
DOVE 4 28 Sep 08:42:26 08:46:00 27° 295° (WNW) 08:49:31 437.250
AAUSAT CUBESAT 2 28 Sep 08:45:49 08:49:30 28° 95° (E) 08:53:08 437.432
NOAA 18 28 Sep 08:51:24 08:55:58 28° 299° (WNW) 09:00:30 137.9125
BEESAT 2 28 Sep 08:52:31 08:56:01 28° 40° (NE) 08:59:30 435.950
ANTELSAT 28 Sep 08:57:12 09:00:08 18° 61° (ENE) 09:03:03 437.575/2403.000
DANDE 28 Sep 09:08:05 09:12:55 17° 284° (WNW) 09:17:40 436.750
HO-68 28 Sep 09:14:06 09:21:18 87° 289° (WNW) 09:28:28 435.675
O/OREOS (USA 219) 28 Sep 09:14:19 09:17:35 19° 313° (NW) 09:20:53 437.305
TIGRISAT 28 Sep 09:16:52 09:20:23 26° 65° (ENE) 09:23:55 435.000
CUBEBUG 2 28 Sep 09:17:58 09:22:12 60° 101° (E) 09:26:32 437.445
FUNcube-1 28 Sep 09:21:26 09:25:10 27° 95° (E) 09:28:56 145.935
PRISM 28 Sep 09:22:15 09:26:09 38° 262° (W) 09:30:03 437.425
COMPASS 1 28 Sep 09:30:14 09:34:28 79° 286° (WNW) 09:38:41 437.405
BEESAT 3 28 Sep 09:33:26 09:37:26 79° 233° (SW) 09:41:24 437.485
UWE-3 28 Sep 09:35:06 09:39:22 61° 101° (E) 09:43:43 435.000/436.395/437.385
AIST 2 28 Sep 09:42:21 09:43:19 11° 20° (NNE) 09:44:16 435.215
JAS-2 28 Sep 09:51:18 09:55:55 19° 49° (NE) 10:00:48 435.910
CINEMA 3 28 Sep 09:51:19 09:54:24 20° 296° (WNW) 09:57:30 145.822/145.860
UNISAT 6 28 Sep 09:56:47 10:01:02 68° 73° (ENE) 10:05:17 437.425
CUTE 1.7 + AOD 2 28 Sep 09:59:49 10:03:11 23° 296° (WNW) 10:06:32 437.475
SEEDS 28 Sep 10:00:06 10:03:49 29° 293° (WNW) 10:07:30 437.485
Oscar 11 28 Sep 10:00:33 10:04:55 70° 102° (ESE) 10:09:16 145.826/435.025
NANOSAT C BR1 28 Sep 10:01:04 10:02:44 12° 58° (ENE) 10:04:23 145.865
CANX-2 28 Sep 10:01:22 10:04:29 20° 297° (WNW) 10:07:35 2200.000
DELFI C3 28 Sep 10:01:54 10:05:28 30° 96° (E) 10:09:00 145.870
ZACube-1 28 Sep 10:03:23 10:07:43 78° 103° (ESE) 10:12:08 437.345
Cosmos 2499 28 Sep 10:05:02 10:11:51 48° 287° (WNW) 10:18:41 435.465 / 435.565
HUMSAT D 28 Sep 10:19:53 10:23:26 25° 94° (E) 10:26:59 437.325/437.525
AAUSAT CUBESAT 2 28 Sep 10:21:16 10:24:57 30° 293° (WNW) 10:28:38 437.432
QB50P2 28 Sep 10:23:10 10:26:23 22° 63° (ENE) 10:29:36 145.880/145.840
POLYITAN 1 28 Sep 10:25:24 10:28:36 22° 63° (ENE) 10:31:48 437.675
BEESAT 2 28 Sep 10:30:09 10:33:58 42° 239° (WSW) 10:37:46 435.950
ANTELSAT 28 Sep 10:32:19 10:36:28 53° 259° (W) 10:40:40 437.575/2403.000
GONETS M04 28 Sep 10:38:25 10:46:15 34° 295° (WNW) 10:54:09
TIGRISAT 28 Sep 10:53:05 10:56:58 34° 263° (W) 11:00:53 435.000
CUBEBUG 2 28 Sep 10:55:42 10:58:26 17° 298° (WNW) 11:01:11 437.445
FUNcube-1 28 Sep 10:57:33 11:01:26 33° 292° (WNW) 11:05:23 145.935
DUCHIFAT 1 28 Sep 11:01:40 11:05:37 41° 69° (ENE) 11:09:33 145.980
HO-68 28 Sep 11:02:54 11:08:07 22° 309° (NW) 11:13:20 435.675
BUGSAT 1 28 Sep 11:02:55 11:05:53 20° 63° (ENE) 11:08:50 437.445
QB50P1 28 Sep 11:04:17 11:08:20 50° 71° (ENE) 11:12:25 145.935-145.965
COMPASS 1 28 Sep 11:08:35 11:09:17 10° 303° (WNW) 11:09:58 437.405
ESTCUBE 1 28 Sep 11:09:19 11:11:58 15° 89° (E) 11:14:35 437.505/2401.250
UWE-3 28 Sep 11:12:41 11:15:25 17° 298° (WNW) 11:18:11 435.000/436.395/437.385
POPSAT HIP 1 28 Sep 11:17:44 11:21:54 68° 73° (ENE) 11:26:05 437.405
AIST 2 28 Sep 11:19:12 11:23:02 33° 42° (NE) 11:26:52 435.215
PCSat 28 Sep 11:27:36 11:31:36 20° 33° (NNE) 11:35:35 145.827
JAS-2 28 Sep 11:33:01 11:39:37 74° 71° (ENE) 11:47:04 435.910
NANOSAT C BR1 28 Sep 11:33:38 11:37:50 86° 255° (WSW) 11:42:03 145.865
UNISAT 6 28 Sep 11:36:10 11:38:14 13° 271° (W) 11:40:19 437.425
Oscar 19 28 Sep 11:36:23 11:39:10 15° 55° (NE) 11:41:57 437.125/150
DELFI C3 28 Sep 11:36:49 11:40:15 27° 293° (WNW) 11:43:38 145.870
Oscar 11 28 Sep 11:37:59 11:40:32 15° 300° (WNW) 11:43:04 145.826/435.025
ZACube-1 28 Sep 11:41:15 11:43:27 14° 300° (WNW) 11:45:41 437.345
PHONESAT 2.4 28 Sep 11:51:03 11:53:00 16° 168° (SSE) 11:54:58 2401.200-2431.200
HUMSAT D 28 Sep 11:55:14 11:59:07 35° 291° (WNW) 12:03:01 437.325/437.525
QB50P2 28 Sep 11:57:57 12:01:57 42° 261° (W) 12:05:59 145.880/145.840
AISAT 28 Sep 11:58:19 12:01:52 23° 94° (E) 12:05:23 437.250
POLYITAN 1 28 Sep 12:00:10 12:04:09 42° 261° (W) 12:08:10 437.675
UKube-1 28 Sep 12:03:12 12:04:59 12° 88° (E) 12:06:46 .
AO-7 28 Sep 12:15:27 12:18:16 12° 31° (NNE) 12:21:04 29.400- 29.500
YUBILEINY 28 Sep 12:27:47 12:34:35 24° 58° (ENE) 12:41:20 435.215
AUBIESAT-1 28 Sep 12:30:44 12:32:34 14° 98° (E) 12:34:24 437.475
DX 1 28 Sep 12:31:26 12:35:17 30° 96° (E) 12:39:05 434.975-435.025
BUGSAT 1 28 Sep 12:37:03 12:40:59 45° 261° (W) 12:44:54 437.445
Gurwin Techsat 1B 28 Sep 12:37:24 12:41:33 24° 60° (ENE) 12:45:43 435.225
DUCHIFAT 1 28 Sep 12:38:18 12:41:29 21° 267° (W) 12:44:40 145.980
VELOX 1 28 Sep 12:41:21 12:45:43 59° 101° (ESE) 12:50:03 145.980
QB50P1 28 Sep 12:41:34 12:44:24 17° 269° (W) 12:47:16 145.935-145.965
CUBEBUG 1 28 Sep 12:43:57 12:48:20 82° 104° (ESE) 12:52:39 437.445
ESTCUBE 1 28 Sep 12:44:42 12:49:14 67° 287° (WNW) 12:53:43 437.505/2401.250
50 SAT 28 Sep 12:54:33 12:58:15 87° 103° (ESE) 13:01:54 437.505
POPSAT HIP 1 28 Sep 12:56:10 12:58:09 13° 271° (W) 13:00:08 437.405
AIST 2 28 Sep 12:57:41 13:01:33 36° 241° (WSW) 13:05:23 435.215
Cosmos 2504 28 Sep 12:58:28 13:01:40 13° 52° (NE) 13:04:54 435.465 / 435.565
TISAT 1 28 Sep 13:05:39 13:07:42 13° 89° (E) 13:09:46 437.305
M-CUBED/EXP-1 PRIME 28 Sep 13:07:40 13:10:51 48° 106° (ESE) 13:14:02 437.505
PCSat 28 Sep 13:10:26 13:15:54 77° 55° (NE) 13:21:19 145.827
Oscar 19 28 Sep 13:12:30 13:17:42 82° 74° (ENE) 13:22:57 437.125/150
JAS-2 28 Sep 13:20:08 13:25:27 25° 273° (W) 13:31:16 435.910
SPROUT 28 Sep 13:21:46 13:26:04 90° 185° (S) 13:30:18 437.525
PHONESAT 2.4 28 Sep 13:26:21 13:28:33 19° 185° (S) 13:30:45 2401.200-2431.200
AISAT 28 Sep 13:34:22 13:38:30 40° 292° (WNW) 13:42:35 437.250
UKube-1 28 Sep 13:37:14 13:41:34 76° 285° (WNW) 13:45:51 .
SWISSCUBE 28 Sep 13:56:09 13:57:46 11° 87° (E) 13:59:23 437.505
AO-7 28 Sep 14:01:18 14:08:43 38° 55° (NE) 14:16:08 29.400- 29.500
AUBIESAT-1 28 Sep 14:04:10 14:07:17 39° 295° (WNW) 14:10:23 437.475
ITAMSAT 1 28 Sep 14:07:34 14:12:22 40° 66° (ENE) 14:17:12 435.822/435.867
DX 1 28 Sep 14:07:36 14:11:26 31° 294° (WNW) 14:15:16 434.975-435.025
BEESAT 28 Sep 14:08:20 14:10:48 14° 88° (E) 14:13:14 436.000
Gurwin Techsat 1B 28 Sep 14:15:53 14:21:07 59° 259° (W) 14:26:24 435.225
VELOX 1 28 Sep 14:18:47 14:21:46 18° 300° (WNW) 14:24:44 145.980
CUBEBUG 1 28 Sep 14:21:55 14:24:00 13° 302° (WNW) 14:26:05 437.445
Cosmos 2491 28 Sep 14:23:46 14:31:58 46° 87° (E) 14:40:15 435.465 / 435.565
YUBILEINY 28 Sep 14:23:54 14:32:40 88° 263° (W) 14:41:22 435.215
SO-50 28 Sep 14:25:52 14:29:10 19° 112° (ESE) 14:32:28 436.795
TISAT 1 28 Sep 14:39:39 14:43:48 65° 288° (WNW) 14:47:55 437.305
M-CUBED/EXP-1 PRIME 28 Sep 14:43:27 14:45:04 13° 304° (NW) 14:46:40 437.505
Cosmos 2504 28 Sep 14:49:31 14:56:49 59° 76° (ENE) 15:04:33 435.465 / 435.565
Oscar 19 28 Sep 14:54:46 14:57:40 15° 272° (W) 15:00:37 437.125/150
PCSat 28 Sep 14:54:59 14:58:40 19° 254° (WSW) 15:02:21 145.827
SPROUT 28 Sep 14:59:45 15:01:20 12° 303° (WNW) 15:02:54 437.525
PHONESAT 2.4 28 Sep 15:03:39 15:03:59 10° 201° (SSW) 15:04:19 2401.200-2431.200
UKube-1 28 Sep 15:16:00 15:16:50 10° 305° (NW) 15:17:40 .
ITUPSAT 1 28 Sep 15:18:46 15:23:33 60° 101° (ESE) 15:28:18 437.325
MOZHAYETS 4 28 Sep 15:27:46 15:30:39 16° 89° (E) 15:33:31
SWISSCUBE 28 Sep 15:31:26 15:36:17 87° 107° (ESE) 15:41:05 437.505
AIST 1 28 Sep 15:39:55 15:43:47 31° 72° (ENE) 15:47:36
BEESAT 28 Sep 15:44:21 15:49:10 80° 288° (WNW) 15:53:58 436.000
ITAMSAT 1 28 Sep 15:47:22 15:51:56 31° 265° (W) 15:56:32 435.822/435.867
KKS-1 28 Sep 15:47:52 15:50:25 15° 90° (E) 15:52:57 437.445
AO-7 28 Sep 15:52:55 16:01:08 62° 256° (WSW) 16:09:23 29.400- 29.500
NOAA 15 28 Sep 15:58:21 15:59:13 10° 49° (NE) 16:00:04 137.62
O/OREOS (USA 219) 28 Sep 16:00:44 16:04:55 32° 54° (NE) 16:09:04 437.305
SO-50 28 Sep 16:04:20 16:09:10 73° 309° (NW) 16:13:57 436.795
HORYU 2 28 Sep 16:08:41 16:12:28 29° 65° (ENE) 16:16:16 437.375
CUTE-I 28 Sep 16:15:58 16:17:56 12° 51° (NE) 16:19:55 437.470
Cubesat XI-IV 28 Sep 16:16:06 16:18:03 12° 51° (NE) 16:20:00 437.490
STARS 28 Sep 16:19:19 16:21:54 15° 90° (E) 16:24:29 437.465
GOMX 1 28 Sep 16:20:31 16:22:56 13° 57° (ENE) 16:25:18 467.674
